GW4041 Weather Reports


Display with metric or nautical units.
time (UTC)temp
F
wind
direction
speed
MPH
gust
MPH
rain 1hr
in
rain 24hr
in
rain mn
in
humidity
%
barometer
mb
20260510152919 68 106 0.0 2.0 0.00 0.00 0.00 77 1013.1
20260510152416 67 91 1.0 3.0 0.00 0.00 0.00 81 1013.1
20260510151912 66 99 2.0 3.0 0.00 0.00 0.00 82 1013.3
20260510151410 66 74 0.0 3.0 0.00 0.00 0.00 83 1013.3
20260510150906 65 212 3.0 3.0 0.00 0.00 0.00 84 1013.2
20260510150402 66 124 1.0 2.0 0.00 0.00 0.00 84 1013.1
20260510145858 65 79 1.0 2.0 0.00 0.00 0.00 83 1013.1
20260510145355 65 22 1.0 2.0 0.00 0.00 0.00 85 1013.2
20260510144852 64 111 3.0 3.0 0.00 0.00 0.00 86 1013.1
20260510144349 64 92 2.0 5.0 0.00 0.00 0.00 85 1013.2
20260510143849 64 124 2.0 3.0 0.00 0.00 0.00 86 1012.9
20260510143345 64 150 2.0 3.0 0.00 0.00 0.00 86 1013.1
20260510142842 62 111 3.0 5.0 0.00 0.00 0.00 88 1013.2
20260510142338 61 45 0.0 2.0 0.00 0.00 0.00 89 1013.5
20260510141835 61 4 1.0 2.0 0.00 0.00 0.00 90 1013.3
20260510141333 60 76 0.0 3.0 0.00 0.00 0.00 91 1013.1
20260510140830 59 100 1.0 2.0 0.00 0.00 0.00 93 1013.2
20260510140326 58 113 3.0 3.0 0.00 0.00 0.00 96 1013.0
20260510135819 57 70 1.0 2.0 0.00 0.00 0.00 99 1013.0
20260510135315 57 97 2.0 3.0 0.00 0.00 0.00 99 1012.9
20260510134813 56 34 0.0 0.0 0.00 0.00 0.00 99 1013.0
20260510134310 56 342 1.0 1.0 0.00 0.00 0.00 99 1013.0
20260510133806 56 0 0.0 1.0 0.00 0.00 0.00 99 1012.8
20260510133303 55 125 1.0 2.0 0.00 0.00 0.00 99 1013.0
20260510132758 54 111 1.0 2.0 0.00 0.00 0.00 99 1013.1
20260510132257 54 344 1.0 2.0 0.00 0.00 0.00 99 1013.2
20260510131753 54 13 1.0 2.0 0.00 0.00 0.00 99 1013.3
20260510131250 54 196 0.0 1.0 0.00 0.00 0.00 99 1013.3
20260510130746 53 239 0.0 1.0 0.00 0.00 0.00 99 1013.3
20260510130243 53 6 0.0 1.0 0.00 0.00 0.00 99 1013.2
20260510125740 53 346 0.0 1.0 0.00 0.00 0.00 99 1013.3
20260510125236 52 4 0.0 1.0 0.00 0.00 0.00 99 1013.2
20260510124733 52 338 0.0 1.0 0.00 0.00 0.00 99 1013.2
20260510124231 52 347 0.0 1.0 0.00 0.00 0.00 99 1013.1
20260510123726 52 238 0.0 2.0 0.00 0.00 0.00 99 1012.9
20260510123222 52 136 1.0 2.0 0.00 0.00 0.00 99 1012.8
20260510122718 51 127 0.0 5.0 0.00 0.00 0.00 99 1012.8
20260510122215 51 114 2.0 3.0 0.00 0.00 0.00 99 1012.7
20260510121711 52 93 2.0 3.0 0.00 0.00 0.00 99 1012.7
20260510121209 51 71 1.0 2.0 0.00 0.00 0.00 99 1012.6
20260510120705 51 91 0.0 2.0 0.00 0.00 0.00 99 1012.5
20260510120202 51 14 0.0 2.0 0.00 0.00 0.00 99 1012.6
20260510115657 51 172 2.0 5.0 0.00 0.00 0.00 99 1012.5
20260510115156 51 4 0.0 1.0 0.00 0.00 0.00 99 1012.5
20260510114645 51 182 1.0 2.0 0.00 0.00 0.00 99 1012.4
20260510114142 51 346 1.0 2.0 0.00 0.00 0.00 99 1012.5
20260510113637 51 36 0.0 0.0 0.00 0.00 0.00 99 1012.5
20260510113134 51 8 0.0 0.0 0.00 0.00 0.00 99 1012.3
20260510112631 51 352 0.0 0.0 0.00 0.00 0.00 99 1012.5
20260510112127 51 351 0.0 1.0 0.00 0.00 0.00 99 1012.6
20260510111624 51 351 0.0 1.0 0.00 0.00 0.00 99 1012.5
20260510111120 51 11 0.0 0.0 0.00 0.00 0.00 99 1012.3
20260510110615 51 330 0.0 0.0 0.00 0.00 0.00 99 1012.3
20260510110113 51 186 0.0 1.0 0.00 0.00 0.00 99 1012.6
20260510105608 51 308 0.0 1.0 0.00 0.00 0.00 99 1012.5
20260510105102 51 347 0.0 0.0 0.00 0.00 0.00 99 1012.1
20260510104600 51 5 0.0 0.0 0.00 0.00 0.00 99 1012.0
20260510104056 50 13 0.0 0.0 0.00 0.00 0.00 99 1012.2
20260510103553 51 325 0.0 0.0 0.00 0.00 0.00 99 1012.0
20260510103049 51 333 0.0 0.0 0.00 0.00 0.00 99 1011.7
20260510102545 50 52 0.0 0.0 0.00 0.00 0.00 99 1011.6
20260510102041 50 333 0.0 0.0 0.00 0.00 0.00 99 1011.7
20260510101539 50 289 0.0 0.0 0.00 0.00 0.00 99 1011.9
20260510101038 51 325 0.0 0.0 0.00 0.00 0.00 99 1011.8
20260510100533 51 344 0.0 0.0 0.00 0.00 0.00 99 1011.7
20260510100031 51 320 0.0 0.0 0.00 0.00 0.00 99 1011.8
20260510095526 50 331 0.0 0.0 0.00 0.00 0.00 99 1012.0
20260510095025 50 40 0.0 0.0 0.00 0.00 0.00 99 1011.7
20260510094520 51 51 0.0 0.0 0.00 0.00 0.00 99 1011.7
20260510094016 51 319 0.0 0.0 0.00 0.00 0.00 99 1011.7
20260510093512 51 353 0.0 2.0 0.00 0.00 0.00 99 1011.7
20260510093009 51 356 0.0 1.0 0.00 0.00 0.00 99 1011.6
20260510092506 51 320 1.0 1.0 0.00 0.00 0.00 99 1011.7
20260510092005 50 322 1.0 1.0 0.00 0.00 0.00 99 1011.6
20260510091503 50 336 0.0 1.0 0.00 0.00 0.00 99 1011.7
20260510090959 50 323 0.0 0.0 0.00 0.00 0.00 99 1011.9
20260510090456 50 341 1.0 1.0 0.00 0.00 0.00 99 1011.9
20260510085951 50 336 0.0 1.0 0.00 0.00 0.00 99 1011.8
20260510085447 50 337 1.0 2.0 0.00 0.00 0.00 99 1011.5
20260510084942 50 354 0.0 1.0 0.00 0.00 0.00 99 1011.9
20260510084440 50 351 0.0 1.0 0.00 0.00 0.00 99 1011.5
20260510083936 49 326 2.0 3.0 0.00 0.00 0.00 99 1011.8
20260510083433 49 338 0.0 2.0 0.00 0.00 0.00 99 1011.6
20260510082928 49 335 0.0 1.0 0.00 0.00 0.00 99 1011.8
20260510082426 48 348 1.0 2.0 0.00 0.00 0.00 99 1011.8
20260510081925 48 344 0.0 0.0 0.00 0.00 0.00 99 1011.3
20260510081421 49 351 0.0 0.0 0.00 0.00 0.00 99 1011.2
20260510080918 49 2 0.0 0.0 0.00 0.00 0.00 99 1011.3
20260510080416 49 332 0.0 0.0 0.00 0.00 0.00 99 1011.3
20260510075914 49 7 0.0 0.0 0.00 0.00 0.00 99 1011.3
20260510075412 49 349 0.0 0.0 0.00 0.00 0.00 99 1011.2
20260510074908 49 350 0.0 0.0 0.00 0.00 0.00 99 1011.1
20260510074405 49 23 0.0 0.0 0.00 0.00 0.00 99 1011.0
20260510073902 49 334 0.0 0.0 0.00 0.00 0.00 99 1011.1
20260510073357 49 341 0.0 0.0 0.00 0.00 0.00 99 1011.1
20260510072853 49 346 0.0 0.0 0.00 0.00 0.00 99 1011.1
20260510072350 49 328 0.0 0.0 0.00 0.00 0.00 99 1011.1
20260510071846 49 342 0.0 0.0 0.00 0.00 0.00 99 1010.7
20260510071343 49 319 0.0 0.0 0.00 0.00 0.00 99 1011.1
20260510070842 49 322 0.0 0.0 0.00 0.00 0.00 99 1011.1
20260510070339 49 339 0.0 0.0 0.00 0.00 0.00 99 1011.1
20260510065838 48 321 0.0 1.0 0.00 0.00 0.00 99 1011.1
20260510065335 48 311 1.0 1.0 0.00 0.00 0.00 99 1010.8
20260510064832 48 326 0.0 1.0 0.00 0.00 0.00 99 1011.0
20260510064330 48 315 1.0 2.0 0.00 0.00 0.00 99 1010.9
20260510063826 48 313 1.0 1.0 0.00 0.00 0.00 99 1010.8
20260510063323 49 321 0.0 0.0 0.00 0.00 0.00 99 1010.6
20260510062819 49 321 0.0 0.0 0.00 0.00 0.00 99 1010.5
20260510062315 49 324 0.0 0.0 0.00 0.00 0.00 99 1010.8
20260510061810 49 326 0.0 0.0 0.00 0.00 0.00 99 1010.7
20260510061308 49 326 0.0 0.0 0.00 0.00 0.00 99 1010.7
20260510060804 49 332 0.0 0.0 0.00 0.00 0.00 99 1010.5
20260510060301 49 332 0.0 0.0 0.00 0.00 0.00 99 1010.9
20260510055758 50 332 0.0 0.0 0.00 0.00 0.00 99 1010.8
20260510055256 50 332 0.0 0.0 0.00 0.00 0.00 99 1010.8
20260510054755 50 342 0.0 0.0 0.00 0.00 0.00 99 1010.8
20260510054252 50 342 0.0 0.0 0.00 0.00 0.00 99 1010.9
20260510053751 49 335 0.0 0.0 0.00 0.00 0.00 99 1010.8
20260510053247 49 334 0.0 0.0 0.00 0.00 0.00 99 1011.0
20260510052744 49 334 0.0 0.0 0.00 0.00 0.00 99 1011.1
20260510052240 49 334 0.0 0.0 0.00 0.00 0.00 99 1011.1
20260510051736 49 334 0.0 0.0 0.00 0.00 0.00 99 1011.2
20260510051233 49 334 0.0 0.0 0.00 0.00 0.00 99 1011.1
20260510050729 49 337 0.0 0.0 0.00 0.00 0.00 99 1011.1
20260510050227 49 324 0.0 0.0 0.00 0.00 0.00 99 1011.3
20260510045723 49 333 0.0 0.0 0.00 0.00 0.00 99 1011.1
20260510045220 48 333 0.0 0.0 0.00 0.00 0.00 99 1010.9
20260510044716 48 331 0.0 0.0 0.00 0.00 0.00 99 1011.1
20260510044215 48 332 0.0 0.0 0.00 0.00 0.00 99 1011.4
20260510043709 48 341 0.0 0.0 0.00 0.00 0.00 99 1011.0
20260510043206 48 327 0.0 0.0 0.00 0.00 0.00 99 1011.2
20260510042704 48 332 0.0 0.0 0.00 0.00 0.00 99 1011.2
20260510042200 47 324 0.0 0.0 0.00 0.00 0.00 99 1011.1
20260510041657 47 335 0.0 0.0 0.00 0.00 0.00 99 1011.2
20260510041154 47 342 0.0 0.0 0.00 0.00 0.00 99 1011.0
20260510040651 47 336 0.0 0.0 0.00 0.00 0.00 99 1011.2
20260510040148 47 337 0.0 0.0 0.00 0.00 0.00 99 1011.1
20260510035643 47 328 0.0 0.0 0.00 0.01 0.01 99 1011.3
20260510035138 47 328 0.0 0.0 0.00 0.01 0.01 99 1011.1
20260510034635 47 328 0.0 0.0 0.00 0.01 0.01 99 1011.1
20260510034132 47 330 0.0 0.0 0.00 0.01 0.01 99 1011.0
20260510033629 47 337 0.0 0.0 0.00 0.01 0.01 99 1011.0
20260510033127 47 339 0.0 0.0 0.00 0.01 0.01 99 1010.9
20260510032623 47 330 0.0 0.0 0.00 0.01 0.01 99 1011.0
20260510032118 47 332 0.0 0.0 0.00 0.01 0.01 99 1010.9
20260510031613 47 327 0.0 0.0 0.00 0.01 0.01 99 1011.0
20260510031110 47 336 0.0 0.0 0.00 0.01 0.01 99 1010.8
20260510030605 47 337 0.0 0.0 0.00 0.01 0.01 99 1010.9
20260510030103 47 337 0.0 0.0 0.00 0.01 0.01 99 1010.9
20260510025600 48 328 0.0 0.0 0.00 0.01 0.01 99 1010.9
20260510025057 48 338 0.0 0.0 0.00 0.01 0.01 99 1010.7
20260510024554 48 329 0.0 0.0 0.00 0.01 0.01 99 1010.7
20260510024050 48 328 0.0 0.0 0.00 0.01 0.01 99 1010.7
20260510023546 48 329 0.0 0.0 0.00 0.01 0.01 99 1010.8
20260510023044 48 340 0.0 0.0 0.00 0.01 0.01 99 1010.7
20260510022543 48 334 0.0 0.0 0.00 0.01 0.01 99 1010.6
20260510022037 48 320 0.0 0.0 0.00 0.01 0.01 99 1010.8
20260510021534 48 338 0.0 0.0 0.00 0.01 0.01 99 1010.9
20260510021033 48 331 0.0 0.0 0.00 0.01 0.01 99 1010.9
20260510020532 48 332 0.0 0.0 0.00 0.01 0.01 99 1010.6
20260510020028 49 332 0.0 0.0 0.00 0.01 0.01 99 1011.0
20260510015524 49 326 0.0 0.0 0.00 0.01 0.01 99 1010.7
20260510015020 49 341 0.0 0.0 0.00 0.01 0.01 99 1010.6
20260510014517 49 329 0.0 0.0 0.00 0.01 0.01 99 1010.9
20260510014014 49 321 0.0 0.0 0.00 0.01 0.01 99 1011.0
20260510013508 49 318 0.0 0.0 0.00 0.01 0.01 99 1010.7
20260510013004 49 337 0.0 0.0 0.00 0.01 0.01 99 1010.9
20260510012459 50 338 0.0 0.0 0.00 0.01 0.01 99 1010.7
20260510011954 50 334 0.0 0.0 0.00 0.01 0.01 99 1010.7
20260510011449 50 338 0.0 0.0 0.00 0.01 0.01 99 1010.9
20260510010945 50 330 0.0 0.0 0.00 0.01 0.01 99 1010.6
20260510010443 50 337 0.0 0.0 0.00 0.01 0.01 99 1010.4
20260510005940 50 338 0.0 0.0 0.00 0.01 0.01 99 1010.4
20260510005435 50 337 0.0 0.0 0.00 0.01 0.01 99 1010.5
20260510004933 50 337 0.0 0.0 0.00 0.01 0.01 99 1010.4
20260510004430 51 337 0.0 0.0 0.00 0.01 0.01 99 1010.3
20260510003928 51 340 0.0 0.0 0.00 0.01 0.01 99 1010.0
20260510003425 51 337 0.0 0.0 0.00 0.01 0.01 99 1010.2
20260510002924 51 341 0.0 0.0 0.00 0.01 0.01 99 1010.2
20260510002421 51 342 0.0 0.0 0.00 0.01 0.01 99 1010.1
20260510001918 52 326 0.0 0.0 0.00 0.01 0.01 99 1010.1
20260510001415 52 338 0.0 0.0 0.00 0.01 0.01 99 1010.1
20260510000912 52 337 0.0 0.0 0.00 0.01 0.01 99 1009.9
20260510000411 52 337 0.0 0.0 0.00 0.01 0.01 99 1010.2
20260509235905 53 337 0.0 0.0 0.00 0.01 0.01 99 1009.8
20260509235402 53 338 0.0 0.0 0.00 0.01 0.01 99 1010.0
20260509234858 53 325 0.0 0.0 0.00 0.01 0.01 99 1010.0
20260509234356 53 324 0.0 0.0 0.00 0.01 0.01 99 1010.0
20260509233853 54 316 0.0 0.0 0.00 0.01 0.01 99 1009.8
20260509233351 54 316 0.0 0.0 0.00 0.01 0.01 98 1010.0
20260509232846 54 321 0.0 0.0 0.00 0.01 0.01 98 1009.9
20260509232344 54 315 0.0 0.0 0.00 0.01 0.01 98 1010.1
20260509231840 54 296 0.0 0.0 0.00 0.01 0.01 97 1009.9
20260509231337 55 328 0.0 0.0 0.00 0.01 0.01 96 1009.8
20260509230835 55 322 0.0 0.0 0.00 0.01 0.01 96 1009.8
20260509230332 55 324 0.0 0.0 0.00 0.01 0.01 95 1009.9
20260509225827 55 56 0.0 0.0 0.00 0.01 0.01 95 1010.0
20260509225324 55 115 1.0 2.0 0.00 0.01 0.01 95 1010.0
20260509224820 55 55 0.0 2.0 0.00 0.01 0.01 96 1010.1
20260509224316 55 20 0.0 0.0 0.00 0.01 0.01 96 1010.3
20260509223813 55 327 0.0 0.0 0.00 0.01 0.01 96 1010.1
20260509223310 55 353 1.0 2.0 0.00 0.01 0.01 96 1010.1
20260509222807 55 29 1.0 3.0 0.00 0.01 0.01 96 1010.1
20260509222306 55 26 0.0 2.0 0.00 0.01 0.01 96 1009.9
20260509221758 55 88 1.0 2.0 0.00 0.01 0.01 96 1009.8
20260509221255 55 83 1.0 2.0 0.00 0.01 0.01 96 1010.0
20260509220750 55 129 0.0 1.0 0.00 0.01 0.01 96 1010.1
20260509220247 55 76 1.0 3.0 0.00 0.01 0.01 95 1010.3
20260509215742 55 152 2.0 3.0 0.00 0.01 0.01 95 1010.2
20260509215239 55 96 2.0 2.0 0.00 0.01 0.01 95 1010.3
20260509214736 55 40 0.0 0.0 0.00 0.01 0.01 96 1010.4
20260509214234 55 86 0.0 0.0 0.00 0.01 0.01 96 1010.4
20260509213731 55 12 0.0 0.0 0.07 0.01 0.01 97 1010.4
20260509213226 54 153 0.0 1.0 0.07 0.01 0.01 97 1010.6
20260509212724 55 27 1.0 1.0 0.00 0.00 0.00 96 1010.7
20260509212221 55 224 0.0 0.0 0.00 0.00 0.00 95 1010.4
20260509211716 55 0 0.0 0.0 0.00 0.00 0.00 94 1010.6
20260509211208 55 68 1.0 1.0 0.00 0.00 0.00 94 1010.4
20260509210704 55 332 0.0 0.0 0.00 0.00 0.00 93 1010.5
20260509210201 55 333 0.0 0.0 0.00 0.00 0.00 92 1010.4
20260509205701 55 2 0.0 0.0 0.00 0.00 0.00 91 1010.6
20260509205200 56 321 0.0 0.0 0.00 0.00 0.00 91 1010.4
20260509204657 56 329 0.0 0.0 0.00 0.00 0.00 90 1010.3
20260509204153 56 359 1.0 1.0 0.00 0.00 0.00 90 1010.0
20260509203649 57 332 1.0 3.0 0.00 0.00 0.00 88 1009.7
20260509203148 57 339 0.0 1.0 0.00 0.00 0.00 89 1010.0
20260509202643 57 348 1.0 3.0 0.00 0.00 0.00 88 1010.0
20260509202138 57 268 1.0 1.0 0.00 0.00 0.00 88 1010.0
20260509201633 57 8 2.0 2.0 0.00 0.00 0.00 88 1010.0
20260509201131 57 5 2.0 2.0 0.00 0.00 0.00 88 1010.1
20260509200626 57 96 0.0 2.0 0.00 0.00 0.00 90 1010.0
20260509200117 57 323 3.0 6.0 0.00 0.00 0.00 89 1010.1
20260509195613 57 328 1.0 5.0 0.00 0.00 0.00 90 1010.1
20260509195107 57 30 3.0 6.0 0.00 0.00 0.00 90 1010.4
20260509194606 57 352 5.0 6.0 0.00 0.00 0.00 90 1010.2
20260509194100 57 342 1.0 2.0 0.00 0.00 0.00 90 1010.4
20260509193554 57 346 2.0 3.0 0.00 0.00 0.00 89 1010.7
20260509193050 57 313 2.0 2.0 0.00 0.00 0.00 89 1010.8
20260509192548 57 349 1.0 2.0 0.00 0.00 0.00 89 1011.0
20260509192042 57 333 1.0 2.0 0.00 0.00 0.00 88 1010.9
20260509191537 57 335 1.0 3.0 0.00 0.00 0.00 88 1010.7
20260509191033 57 332 0.0 2.0 0.00 0.00 0.00 87 1010.6
20260509190530 58 330 1.0 2.0 0.00 0.00 0.00 86 1010.9
20260509190028 58 334 1.0 3.0 0.00 0.00 0.00 85 1010.8
20260509185525 58 341 2.0 2.0 0.00 0.00 0.00 84 1011.1
20260509185021 58 53 2.0 3.0 0.00 0.00 0.00 82 1010.9
20260509184520 59 357 2.0 6.0 0.00 0.00 0.00 82 1011.2
20260509184015 59 307 2.0 3.0 0.00 0.00 0.00 81 1011.0
20260509183511 59 348 2.0 5.0 0.00 0.00 0.00 79 1010.8
20260509183007 60 340 2.0 5.0 0.00 0.00 0.00 80 1010.9
20260509182503 60 358 1.0 2.0 0.00 0.00 0.00 79 1010.8
20260509182001 60 2 2.0 2.0 0.00 0.00 0.00 80 1010.6
20260509181459 60 344 2.0 3.0 0.00 0.00 0.00 80 1010.9
20260509180956 60 279 1.0 2.0 0.00 0.00 0.00 81 1010.7
20260509180451 60 9 0.0 5.0 0.00 0.00 0.00 81 1010.7
20260509175949 59 315 1.0 1.0 0.00 0.00 0.00 81 1010.9
20260509175444 60 335 1.0 2.0 0.00 0.00 0.00 81 1011.1
20260509174941 60 326 1.0 2.0 0.00 0.00 0.00 82 1010.8
20260509174437 60 306 1.0 3.0 0.00 0.00 0.00 80 1010.7
20260509173933 60 332 1.0 2.0 0.00 0.00 0.00 80 1010.9
20260509173432 61 311 0.0 2.0 0.00 0.00 0.00 79 1010.9
20260509172929 61 350 2.0 2.0 0.00 0.00 0.00 75 1011.0
20260509172426 62 332 1.0 3.0 0.00 0.00 0.00 76 1010.9
20260509171922 62 60 0.0 1.0 0.00 0.00 0.00 75 1011.0
20260509171418 62 41 3.0 5.0 0.00 0.00 0.00 75 1010.9
20260509170915 63 29 2.0 2.0 0.00 0.00 0.00 72 1011.1
20260509170410 64 5 0.0 2.0 0.00 0.00 0.00 71 1010.9
20260509165907 64 23 3.0 3.0 0.00 0.00 0.00 70 1010.9
20260509165400 64 305 0.0 0.0 0.00 0.00 0.00 68 1010.9
20260509164856 65 40 0.0 2.0 0.00 0.00 0.00 67 1011.0
20260509164352 65 278 1.0 1.0 0.00 0.00 0.00 66 1011.1
20260509163849 66 10 1.0 2.0 0.00 0.00 0.00 65 1011.1
20260509163346 66 11 0.0 2.0 0.00 0.00 0.00 65 1011.1
20260509162845 66 44 0.0 5.0 0.00 0.00 0.00 66 1011.0
20260509162338 66 323 2.0 2.0 0.00 0.00 0.00 66 1011.2
20260509161835 66 340 0.0 3.0 0.00 0.00 0.00 66 1011.0
20260509161331 66 308 2.0 2.0 0.00 0.00 0.00 66 1011.3
20260509160827 66 3 3.0 5.0 0.00 0.00 0.00 66 1011.0
20260509160323 67 314 1.0 3.0 0.00 0.00 0.00 68 1011.2
20260509155818 66 18 2.0 2.0 0.00 0.00 0.00 66 1011.3
20260509155315 66 222 0.0 2.0 0.00 0.00 0.00 67 1011.3
20260509154811 65 78 1.0 3.0 0.00 0.00 0.00 70 1011.6
20260509154308 64 98 2.0 3.0 0.00 0.00 0.00 71 1011.5
20260509153805 65 261 0.0 2.0 0.00 0.00 0.00 71 1011.5
20260509153301 64 79 2.0 2.0 0.00 0.00 0.00 72 1011.6